Location: *
(44.9308°N, 123.0197°W)
Time: 22:04:35
(UTC+00:00)

Cosmos 1378 - Pass Details

Date: 09 April 2020
Orbit: 491 x 503 km, 82.5° (Epoch: 02 June)

Event Time Altitude Azimuth Distance (km) Brightness Sun altitude
Rises 12:36:58 0° 178° (S) 2,570 6.5 -11.0°
Reaches altitude 10° 12:39:05 10° 175° (S) 1,694 5.6 -10.6°
Maximum altitude 12:42:44 59° 95° (E) 581 3.8 -10.0°
Drops below altitude 10° 12:46:26 10° 16° (NNE) 1,717 6.4 -9.4°
Sets 12:48:35 0° 13° (NNE) 2,608 7.3 -9.1°
